Danbury, CT

7:10 AM EDT on September 25, 2016 (GMT -0400)
Danbury Municipal

Weather History for KDXR - March, 2014

Change the Weather History Date:

Tuesday, March 18, 2014

  Actual Average Record
Temperature  
Mean Temperature 29 °F -  
Max Temperature 42 °F 44 °F 72 °F (2011)
Min Temperature 16 °F 24 °F -1 °F (1967)
Degree Days  
Heating Degree Days 36    
Moisture  
Dew Point 6 °F    
Average Humidity 45    
Maximum Humidity 78    
Minimum Humidity 15    
Precipitation  
Precipitation 0.00 in - - ()
Sea Level Pressure  
Sea Level Pressure 30.26 in    
Wind  
Wind Speed 3 mph (East)    
Max Wind Speed 8 mph    
Max Gust Speed 17 mph    
Visibility 10 miles    
Events      
Averages and records for this station are not official NWS values.
T = Trace of Precipitation, MM = Missing Value Source: NWS Daily Summary

Daily Weather History Graph

Daily Weather History Graph

Search for Another Location

Airport or City:

Trip Planner

Search our weather history database for the weather conditions in past years. The results will help you decide how hot, cold, wet, or windy it might be!

Date:

Astronomy

Mar. 18, 2014 Rise Set
Actual Time 7:00 AM EDT 7:03 PM EDT
Civil Twilight 6:33 AM EDT 7:31 PM EDT
Nautical Twilight 6:00 AM EDT 8:03 PM EDT
Astronomical Twilight 5:28 AM EDT 8:36 PM EDT
Moon 9:20 PM EDT (3/18) 7:47 AM EDT (3/18)
Length of Visible Light 12h 58m
Length of Day
12h 03m
Waning Gibbous, 96% of the Moon is Illuminated
Mar 18
Waning Gibbous
Mar 23
Last Quarter
Mar 30
New
Apr 7
First Quarter
Apr 15
Full

Hourly Weather History & Observations

Time (EDT) Temp. Windchill Dew Point Humidity Pressure Visibility Wind Dir Wind Speed Gust Speed Precip Events Conditions
12:53 AM 19.0 °F - 9.0 °F 65% 30.16 in 10.0 mi Calm Calm - N/A   Clear
1:53 AM 18.0 °F - 9.0 °F 68% 30.17 in 10.0 mi Calm Calm - N/A   Clear
2:53 AM 17.1 °F - 9.0 °F 71% 30.17 in 10.0 mi Calm Calm - N/A   Clear
3:53 AM 17.1 °F - 8.1 °F 68% 30.18 in 10.0 mi Calm Calm - N/A   Clear
4:53 AM 16.0 °F - 9.0 °F 74% 30.20 in 10.0 mi Calm Calm - N/A   Clear
5:53 AM 16.0 °F - 9.0 °F 74% 30.21 in 10.0 mi Calm Calm - N/A   Clear
6:53 AM 16.0 °F - 7.0 °F 68% 30.23 in 10.0 mi Calm Calm - N/A   Clear
7:53 AM 19.9 °F 13.4 °F 5.0 °F 52% 30.27 in 10.0 mi East 4.6 mph - N/A   Clear
8:53 AM 23.0 °F 13.9 °F 3.0 °F 42% 30.31 in 10.0 mi East 8.1 mph - N/A   Clear
9:53 AM 27.0 °F 18.7 °F 1.9 °F 34% 30.30 in 10.0 mi East 8.1 mph - N/A   Clear
10:53 AM 30.9 °F 23.5 °F 1.9 °F 29% 30.30 in 10.0 mi NNE 8.1 mph - N/A   Clear
11:53 AM 33.1 °F 26.1 °F -0.0 °F 24% 30.29 in 10.0 mi NNE 8.1 mph 17.3 mph N/A   Clear
12:53 PM 35.1 °F 29.3 °F 1.0 °F 24% 30.30 in 10.0 mi ESE 6.9 mph - N/A   Clear
1:53 PM 39.0 °F 35.7 °F 1.0 °F 20% 30.28 in 10.0 mi Variable 4.6 mph - N/A   Clear
2:53 PM 39.9 °F - -0.9 °F 18% 30.28 in 10.0 mi Calm Calm - N/A   Clear
3:53 PM 41.0 °F 36.4 °F -0.9 °F 17% 30.27 in 10.0 mi ESE 6.9 mph - N/A   Clear
4:53 PM 42.1 °F 38.4 °F -2.9 °F 15% 30.27 in 10.0 mi SE 5.8 mph - N/A   Clear
5:53 PM 41.0 °F 35.8 °F 1.0 °F 19% 30.27 in 10.0 mi SE 8.1 mph - N/A   Clear
6:53 PM 37.0 °F 32.4 °F 5.0 °F 26% 30.28 in 10.0 mi SSE 5.8 mph - N/A   Clear
7:53 PM 34.0 °F 28.8 °F 9.0 °F 35% 30.28 in 10.0 mi SSE 5.8 mph - N/A   Clear
8:53 PM 32.0 °F 27.5 °F 10.9 °F 42% 30.31 in 10.0 mi East 4.6 mph - N/A   Clear
9:53 PM 30.9 °F - 15.1 °F 52% 30.32 in 10.0 mi Calm Calm - N/A   Clear
10:53 PM 28.9 °F 25.2 °F 21.0 °F 72% 30.32 in 10.0 mi East 3.5 mph - N/A   Clear
11:53 PM 28.0 °F - 21.9 °F 78% 30.32 in 10.0 mi Calm Calm - N/A   Clear